| time (UTC) | temp C | wind direction | speed KPH | gust KPH | rain 1hr cm | rain 24hr cm | rain mn cm | humidity % | barometer mb |
| 20260503230041 | 8 | 173 | 0.0 | 0.0 | 0.00 | 0.00 | 0.00 | 74 | 1019.6 |
| 20260503224535 | 8 | 173 | 0.0 | 0.0 | 0.00 | 0.00 | 0.00 | 72 | 1019.6 |
| 20260503223033 | 8 | 173 | 0.0 | 0.0 | 0.00 | 0.00 | 0.00 | 71 | 1019.6 |
| 20260503221534 | 8 | 173 | 0.0 | 0.0 | 0.00 | 0.00 | 0.00 | 70 | 1019.6 |
| 20260503220036 | 8 | 173 | 0.0 | 0.0 | 0.00 | 0.00 | 0.00 | 69 | 1019.8 |
| 20260503214527 | 8 | 173 | 0.0 | 0.0 | 0.00 | 0.00 | 0.00 | 67 | 1019.8 |
| 20260503213037 | 9 | 173 | 0.0 | 0.0 | 0.00 | 0.00 | 0.00 | 67 | 1019.8 |
| 20260503211524 | 10 | 173 | 0.0 | 0.0 | 0.00 | 0.00 | 0.00 | 65 | 1019.8 |
| 20260503210021 | 10 | 173 | 0.0 | 0.0 | 0.00 | 0.00 | 0.00 | 63 | 1019.9 |
| 20260503204519 | 10 | 173 | 0.0 | 0.0 | 0.00 | 0.00 | 0.00 | 61 | 1019.8 |
| 20260503203023 | 10 | 173 | 0.0 | 0.0 | 0.00 | 0.00 | 0.00 | 58 | 1019.9 |
| 20260503201523 | 11 | 173 | 0.0 | 0.0 | 0.00 | 0.00 | 0.00 | 56 | 1020.0 |
| 20260503200018 | 11 | 173 | 0.0 | 0.0 | 0.00 | 0.00 | 0.00 | 56 | 1020.0 |
| 20260503194522 | 11 | 173 | 0.0 | 1.6 | 0.00 | 0.00 | 0.00 | 55 | 1020.0 |
| 20260503193018 | 11 | 173 | 0.0 | 0.0 | 0.00 | 0.00 | 0.00 | 54 | 1020.0 |
| 20260503191516 | 11 | 173 | 0.0 | 1.6 | 0.00 | 0.00 | 0.00 | 54 | 1019.9 |
| 20260503190015 | 11 | 180 | 0.0 | 1.6 | 0.00 | 0.00 | 0.00 | 54 | 1019.9 |
| 20260503184514 | 12 | 179 | 0.0 | 3.2 | 0.00 | 0.00 | 0.00 | 54 | 1019.9 |
| 20260503183013 | 12 | 176 | 0.0 | 0.0 | 0.00 | 0.00 | 0.00 | 53 | 1019.9 |
| 20260503181513 | 12 | 186 | 0.0 | 0.0 | 0.00 | 0.00 | 0.00 | 51 | 1019.8 |
| 20260503180024 | 12 | 355 | 0.0 | 1.6 | 0.00 | 0.00 | 0.00 | 49 | 1019.8 |
| 20260503174519 | 13 | 159 | 0.0 | 1.6 | 0.00 | 0.00 | 0.00 | 48 | 1019.7 |
| 20260503173013 | 13 | 169 | 0.0 | 3.2 | 0.00 | 0.00 | 0.00 | 47 | 1019.7 |
| 20260503171517 | 13 | 182 | 0.0 | 4.8 | 0.00 | 0.00 | 0.00 | 45 | 1019.6 |
| 20260503081511 | 14 | 31 | 0.0 | 0.0 | 0.00 | 0.00 | 0.00 | 42 | 1023.5 |
| 20260503071502 | 14 | 15 | 0.0 | 0.0 | 0.00 | 0.00 | 0.00 | 52 | 1023.5 |
| 20260503070113 | 13 | 15 | 0.0 | 0.0 | 0.00 | 0.00 | 0.00 | 54 | 1023.5 |
| 20260503054552 | 8 | 15 | 0.0 | 0.0 | 0.00 | 0.00 | 0.00 | 87 | 1023.3 |
| 20260503053036 | 7 | 15 | 0.0 | 0.0 | 0.00 | 0.00 | 0.00 | 88 | 1023.2 |
| 20260503051545 | 6 | 15 | 0.0 | 0.0 | 0.00 | 0.00 | 0.00 | 89 | 1023.1 |
| 20260503050034 | 6 | 15 | 0.0 | 1.6 | 0.00 | 0.00 | 0.00 | 89 | 1023.0 |
| 20260503044534 | 6 | 15 | 0.0 | 0.0 | 0.00 | 0.00 | 0.00 | 89 | 1022.9 |
| 20260503043032 | 6 | 15 | 0.0 | 0.0 | 0.00 | 0.00 | 0.00 | 89 | 1022.9 |
| 20260503041533 | 6 | 15 | 0.0 | 1.6 | 0.00 | 0.00 | 0.00 | 89 | 1022.9 |
| 20260503040031 | 5 | 15 | 0.0 | 0.0 | 0.00 | 0.00 | 0.00 | 89 | 1022.8 |
| 20260503034529 | 5 | 15 | 0.0 | 0.0 | 0.00 | 0.00 | 0.00 | 89 | 1022.7 |
| 20260503033027 | 6 | 15 | 0.0 | 0.0 | 0.00 | 0.00 | 0.00 | 89 | 1022.6 |
| 20260503031531 | 6 | 15 | 0.0 | 0.0 | 0.00 | 0.00 | 0.00 | 88 | 1022.6 |
| 20260503030030 | 6 | 15 | 0.0 | 0.0 | 0.00 | 0.00 | 0.00 | 88 | 1022.6 |
| 20260503024525 | 6 | 15 | 0.0 | 0.0 | 0.00 | 0.00 | 0.00 | 87 | 1022.5 |
| 20260503023022 | 6 | 15 | 0.0 | 0.0 | 0.00 | 0.00 | 0.00 | 87 | 1022.5 |
| 20260503021520 | 6 | 15 | 0.0 | 1.6 | 0.00 | 0.00 | 0.00 | 86 | 1022.5 |
| 20260503020019 | 6 | 15 | 0.0 | 0.0 | 0.00 | 0.00 | 0.00 | 86 | 1022.5 |
| 20260503014517 | 7 | 15 | 0.0 | 1.6 | 0.00 | 0.00 | 0.00 | 85 | 1022.4 |
| 20260503013028 | 7 | 15 | 0.0 | 0.0 | 0.00 | 0.00 | 0.00 | 84 | 1022.4 |
| 20260503011514 | 7 | 15 | 0.0 | 0.0 | 0.00 | 0.00 | 0.00 | 81 | 1022.5 |
| 20260503010012 | 7 | 15 | 0.0 | 0.0 | 0.00 | 0.00 | 0.00 | 79 | 1022.4 |
| 20260503004509 | 8 | 15 | 0.0 | 0.0 | 0.00 | 0.00 | 0.00 | 79 | 1022.5 |
| 20260503003009 | 8 | 15 | 0.0 | 0.0 | 0.00 | 0.00 | 0.00 | 78 | 1022.5 |
| 20260503001508 | 8 | 15 | 0.0 | 0.0 | 0.00 | 0.00 | 0.00 | 77 | 1022.6 |
| 20260503000006 | 8 | 15 | 0.0 | 0.0 | 0.00 | 0.00 | 0.00 | 78 | 1022.7 |
| 20260502234504 | 8 | 15 | 0.0 | 0.0 | 0.00 | 0.00 | 0.00 | 78 | 1022.7 |
| 20260502233002 | 8 | 15 | 0.0 | 0.0 | 0.00 | 0.00 | 0.00 | 81 | 1022.8 |
| 20260502231501 | 8 | 15 | 0.0 | 0.0 | 0.00 | 0.00 | 0.00 | 79 | 1023.2 |